Theta_e
314 313 312 311 310 309 308 307 306 305 305 305 305 306 306 306 304 293 290 289 285 276 282 283 285 282 281 280 275 276 276 276 270 267 263 264 268 271 270 270 272 275 267 275 272 266 269 284 284 281 284 285 285 285
313 312 311 310 309 308 307 306 306 305 305 305 305 306 306 305 303 295 288 292 288 282 278 285 284 284 284 283 282 281 279 278 280 272 272 270 264 266 266 263 275 270 277 272 276 279 283 284 283 285 285 285 284 284
311 311 310 309 309 308 307 306 305 305 305 305 305 306 306 305 302 294 290 286 283 278 282 278 278 283 286 284 286 280 279 283 283 281 273 268 265 274 261 265 272 276 279 278 273 277 280 282 283 284 284 284 284 283
310 310 309 309 308 307 306 305 305 304 305 305 304 305 305 304 301 295 288 286 284 278 274 274 283 280 284 284 285 285 284 284 283 281 272 267 264 277 272 275 276 274 275 272 274 277 278 281 283 283 284 283 283 284
309 309 309 308 307 307 306 305 304 304 304 304 304 304 305 304 299 291 287 285 285 282 272 274 279 281 283 283 284 285 284 282 277 272 275 270 277 279 277 277 275 276 274 274 272 278 280 282 282 282 283 283 283 283
308 308 308 307 307 306 305 305 304 304 304 303 303 304 304 301 297 289 280 287 287 284 275 268 279 281 282 283 284 283 282 279 275 272 268 274 278 277 268 268 274 277 278 279 278 275 277 277 274 275 280 279 279 277
308 308 308 307 307 306 305 304 304 303 303 303 303 304 303 300 288 282 281 286 290 284 274 272 275 281 282 275 271 281 284 281 273 276 276 277 278 280 273 269 276 276 278 278 277 276 276 273 278 272 270 272 270 269
307 307 307 306 306 305 304 304 303 303 303 303 303 303 301 298 292 286 291 291 286 277 273 269 272 277 281 274 270 280 275 266 270 270 274 274 273 277 272 276 277 276 275 274 275 275 277 272 269 268 264 264 267 268
306 307 307 306 305 305 304 303 303 303 302 302 302 299 292 286 281 285 293 288 282 279 269 264 269 268 279 279 273 271 268 265 269 275 268 277 264 271 273 273 273 274 275 276 271 267 267 268 268 265 262 264 264 267
303 306 306 305 304 303 303 303 302 302 302 300 294 286 279 283 294 292 282 276 276 270 265 265 264 270 276 271 274 272 269 266 268 270 272 273 269 274 275 274 273 273 271 266 270 271 266 266 264 263 262 260 261 263
302 305 305 304 304 303 302 302 302 301 298 290 285 283 285 295 285 280 275 270 267 272 270 265 267 274 276 268 269 270 264 263 265 264 272 267 265 270 267 264 264 263 264 265 264 263 261 263 263 260 263 258 258 260
302 305 304 303 303 302 301 301 300 295 289 289 288 289 286 282 279 277 271 269 271 270 269 269 269 271 274 271 269 269 262 267 261 260 268 266 269 269 264 265 262 259 259 259 262 269 265 258 257 257 258 257 257 257
303 304 304 303 302 301 301 300 298 296 294 290 285 283 282 280 275 272 271 271 272 268 271 272 273 275 274 272 269 265 260 263 260 267 264 266 266 263 262 258 259 253 253 255 257 254 252 253 254 258 262 266 259 256
304 304 303 302 301 300 300 299 297 295 288 283 280 276 279 275 275 271 268 270 270 272 275 276 272 275 271 271 269 262 259 263 262 261 263 265 267 268 261 256 260 261 257 257 256 254 254 262 269 269 262 255 254 255
303 303 302 301 300 300 299 297 296 291 285 281 280 275 276 271 263 264 266 273 269 280 278 275 275 275 270 270 263 262 264 264 262 264 266 267 265 265 261 257 261 258 257 255 253 254 263 269 269 265 254 255 253 254
303 302 299 300 300 299 297 296 290 286 284 282 280 274 271 271 265 265 267 275 280 280 276 276 272 270 266 266 264 263 263 262 268 265 266 261 260 259 259 260 259 258 259 257 254 262 269 269 268 257 253 253 254 253
302 288 300 299 299 297 296 289 285 285 283 279 274 270 274 275 274 273 278 279 283 280 273 272 271 270 265 259 260 261 266 270 266 263 259 266 270 267 262 260 259 259 257 255 264 267 269 265 254 255 257 254 251 252
295 298 299 299 296 293 285 285 284 283 278 275 273 272 270 274 275 274 274 282 281 277 275 274 270 267 267 263 263 268 269 261 258 261 265 263 260 261 265 264 261 261 259 257 265 267 267 256 257 256 253 253 253 253
296 297 298 297 291 287 284 284 284 274 273 273 275 273 274 275 278 279 281 282 276 276 274 272 272 270 268 266 265 265 263 264 268 265 260 257 260 263 263 260 261 258 258 257 262 263 267 266 262 262 262 265 268 266
298 298 296 294 292 282 278 277 283 278 277 275 274 274 275 276 280 281 279 274 276 276 274 272 269 261 265 261 257 257 259 262 266 268 266 261 258 260 263 264 263 259 256 252 254 260 264 267 269 269 269 269 268 264
295 291 293 288 277 274 272 273 272 275 275 274 275 274 273 278 278 277 278 275 278 272 269 257 256 257 258 259 258 256 259 260 260 263 266 266 258 260 259 258 259 258 258 256 261 256 256 262 261 268 268 268 259 255
283 284 276 280 275 273 271 270 273 274 275 274 274 275 274 274 275 276 276 273 264 253 253 254 254 254 258 258 257 255 256 259 258 260 260 260 260 259 258 258 259 261 260 260 260 261 259 255 253 257 262 252 252 252
273 271 266 267 270 270 267 272 271 272 273 274 275 272 271 271 271 272 259 255 252 253 252 251 252 254 255 257 259 257 257 259 259 258 258 257 256 256 258 255 256 260 259 260 257 258 257 257 255 254 253 251 251 251
263 255 257 256 260 260 266 264 267 269 269 267 267 265 264 265 267 263 256 251 252 253 252 252 254 257 258 259 257 256 255 257 258 258 257 258 260 258 254 252 253 255 257 256 257 255 254 255 256 254 252 251 250 251
256 248 252 251 254 258 259 259 259 261 260 261 263 261 260 261 260 257 254 249 250 251 251 252 253 254 254 256 256 256 256 255 255 256 257 256 255 254 257 255 253 254 255 257 255 255 254 254 255 256 255 255 255 252
246 247 248 246 248 252 252 253 253 253 257 256 254 255 257 259 258 252 248 248 249 250 250 250 250 252 254 254 254 255 256 256 255 257 258 256 256 256 254 255 256 258 254 255 255 255 255 255 255 255 255 255 256 254
244 244 248 250 249 249 251 252 252 251 249 249 248 252 258 257 252 247 250 250 250 251 252 252 252 252 252 254 255 257 257 256 256 257 258 257 257 256 256 256 256 257 255 255 254 255 256 257 256 256 256 253 255 256
245 245 244 247 248 249 248 247 246 245 246 247 249 247 251 248 247 248 250 252 251 252 252 253 254 254 254 255 256 256 256 256 257 257 257 257 257 258 257 257 258 263 260 257 257 257 256 257 257 257 257 257 257 257
246 246 247 247 249 247 245 246 245 247 247 247 248 247 246 248 249 249 250 251 252 251 251 251 252 253 254 255 256 256 255 254 256 257 257 257 257 257 258 258 257 258 258 258 261 263 259 258 257 257 257 257 258 257
245 244 248 248 247 245 247 247 247 248 249 248 249 249 249 249 250 252 251 250 250 249 250 251 251 251 250 251 251 252 254 254 253 252 252 252 253 255 255 257 257 258 258 258 259 259 264 264 263 260 259 259 257 259
243 245 248 248 247 247 247 247 248 248 248 248 248 248 247 248 250 250 249 248 248 249 250 249 250 251 250 250 250 249 250 252 253 253 253 253 254 256 258 258 259 259 259 259 260 260 260 260 260 260 259 260 260 260
242 239 244 246 245 246 245 245 245 246 245 247 246 246 246 247 246 248 249 248 248 248 249 248 248 248 250 251 252 251 253 252 252 253 252 254 255 257 259 258 258 258 259 260 260 261 261 261 261 260 260 260 260 260
237 238 239 241 243 244 242 242 243 243 244 244 244 244 245 246 247 248 249 248 247 247 248 249 249 249 249 250 250 251 253 253 253 256 257 259 259 260 259 259 259 259 259 260 260 261 260 260 260 260 260 260 259 259
Wind_Speed
42 42 42 42 41 41 38 36 35 33 30 29 27 25 24 23 23 6 3 2 5 4 2 2 1 4 3 2 4 4 4 4 4 5 5 3 2 3 2 4 2 3 3 3 3 5 3 7 4 5 0 1 0 2
43 43 44 43 41 41 40 38 36 34 32 30 28 26 25 24 24 9 4 2 3 6 3 1 2 2 2 1 5 1 3 2 4 4 0 3 2 2 2 2 3 3 4 3 5 4 1 3 2 2 1 1 3 2
36 39 42 42 42 41 41 39 37 35 32 31 29 27 26 25 24 8 6 5 5 4 3 3 1 4 3 4 1 3 2 2 0 3 4 3 3 3 2 5 3 3 0 3 5 4 0 4 1 2 2 2 2 2
36 42 43 43 43 42 41 40 38 36 34 32 30 28 26 26 21 11 5 4 4 4 5 5 2 2 5 5 2 1 1 4 4 3 2 3 3 2 3 3 3 5 2 4 5 5 2 2 2 3 4 2 4 4
34 42 42 43 43 42 42 41 39 36 35 32 30 28 27 26 19 9 4 3 3 6 5 1 2 3 4 4 3 3 3 3 3 3 1 3 1 2 1 1 5 6 7 5 6 5 3 2 3 3 3 3 5 5
29 35 39 40 43 43 42 41 40 37 35 33 30 28 28 26 20 6 4 3 4 5 7 3 2 2 4 6 7 6 4 3 3 4 3 2 3 2 2 4 7 6 4 5 3 3 2 3 4 3 2 3 3 3
33 40 42 41 41 42 43 41 40 38 35 32 30 29 29 26 5 5 7 3 12 4 6 4 1 1 1 3 3 2 3 2 3 2 1 1 1 2 2 5 6 5 5 2 1 3 4 1 2 2 2 5 3 4
31 36 40 39 39 40 42 42 41 38 36 33 31 29 26 20 12 5 3 10 5 8 5 6 2 2 0 1 2 1 2 3 4 2 0 1 1 2 7 9 5 1 2 1 4 3 2 2 2 3 2 4 5 4
26 34 38 41 42 43 44 43 43 39 37 36 34 30 9 4 3 2 14 11 4 6 6 4 8 6 2 2 2 4 3 2 3 2 2 1 2 9 10 6 3 5 6 6 2 1 3 2 3 4 4 5 3 5
23 37 40 42 45 47 48 46 45 43 41 40 22 6 3 4 19 16 7 4 5 4 4 4 1 4 4 1 1 3 2 2 2 4 2 3 7 8 8 8 6 7 5 4 4 5 3 2 1 3 3 4 4 7
24 38 41 43 42 45 46 49 47 46 40 8 6 4 4 23 5 4 3 5 2 1 3 4 5 8 1 4 4 1 3 2 2 6 3 3 6 6 2 2 1 3 4 6 3 3 3 5 4 3 6 4 5 6
23 37 38 41 45 46 48 51 53 21 8 12 14 10 4 4 3 5 5 1 5 10 4 7 5 5 3 3 5 2 4 2 4 1 1 5 8 6 2 3 4 4 4 4 3 2 2 4 4 4 5 5 5 5
26 40 43 44 49 53 53 55 41 36 35 18 8 5 5 3 7 12 13 7 7 7 7 6 6 5 4 2 4 4 5 6 1 2 7 9 5 4 5 3 1 2 3 2 0 1 1 3 3 4 5 4 5 5
32 39 44 49 51 54 56 49 47 33 14 6 7 11 10 9 11 7 5 8 5 6 11 9 6 5 3 4 3 6 4 2 2 3 10 5 8 6 5 3 5 5 6 4 3 2 2 3 3 2 3 4 4 5
38 45 48 50 54 56 54 50 44 13 6 6 7 9 10 3 3 2 3 8 3 13 14 8 5 4 2 5 3 5 3 6 8 9 6 5 6 7 6 6 6 5 6 5 4 3 3 1 1 2 3 4 4 4
41 43 34 57 56 56 52 43 15 4 3 5 5 5 3 6 1 1 1 9 10 14 5 4 6 5 3 6 5 11 10 10 7 7 5 4 5 4 5 5 5 5 5 5 4 4 2 1 1 2 2 4 4 3
42 3 49 56 55 52 49 14 5 3 5 7 3 1 4 6 9 5 9 9 14 14 5 5 7 6 5 3 4 6 8 6 5 4 3 6 8 8 7 6 6 7 6 6 4 5 3 4 4 3 2 3 2 3
17 29 55 53 41 35 5 3 5 5 5 4 5 5 2 3 10 6 3 13 11 6 5 5 8 6 8 8 5 6 6 3 2 3 3 4 4 4 6 8 7 7 6 5 3 4 5 4 4 2 3 3 1 2
25 37 56 51 30 12 6 2 3 5 3 4 5 3 3 6 5 7 11 11 4 4 8 1 5 5 5 4 4 2 2 3 3 3 2 0 3 6 6 5 6 6 6 5 4 3 3 4 3 4 4 4 2 2
49 56 55 48 24 7 6 3 3 6 4 4 3 4 5 5 7 9 10 3 4 3 2 2 4 1 2 1 1 2 2 3 1 3 1 1 2 5 6 7 6 5 4 2 1 0 3 3 2 3 3 3 3 3
42 34 36 15 7 8 6 3 5 3 5 5 4 4 5 5 8 8 5 1 4 3 2 2 2 1 3 2 2 2 4 3 2 1 1 3 2 2 3 2 3 3 3 3 4 3 3 3 3 3 3 2 2 2
12 21 7 8 7 6 6 6 5 3 4 6 5 4 5 5 5 4 4 4 4 4 2 2 2 2 3 3 4 3 4 3 3 2 4 4 4 2 1 3 4 3 3 3 3 4 3 2 2 1 2 3 3 3
15 11 9 11 9 8 3 4 5 5 6 4 4 6 4 3 2 4 6 3 3 3 2 1 3 3 2 3 2 5 9 7 5 5 5 4 2 2 2 2 3 3 2 3 3 3 3 4 3 3 3 3 3 2
18 14 12 9 10 4 3 6 5 5 5 5 5 5 4 2 2 5 5 3 2 2 4 6 5 2 0 2 4 5 6 5 3 1 5 4 2 3 2 1 0 2 2 1 2 2 2 3 4 3 3 3 3 3
18 16 10 11 7 6 7 6 6 6 6 5 5 4 3 3 4 4 3 2 3 4 6 6 5 5 4 2 2 4 4 5 4 4 4 3 2 2 2 2 1 1 0 2 0 1 1 3 3 4 5 4 6 5
17 10 9 9 7 7 6 5 6 5 4 5 5 3 2 3 5 4 3 4 4 4 5 5 5 4 3 4 3 4 5 4 4 2 2 3 3 2 1 2 2 3 2 1 1 2 2 2 4 6 5 6 6 6
12 8 5 3 3 3 5 4 4 7 8 6 4 6 3 5 4 2 1 2 3 2 4 4 3 3 3 4 4 4 4 3 3 4 4 3 2 1 0 2 3 3 2 2 2 3 4 5 5 5 5 2 5 6
5 6 8 9 5 6 6 6 7 7 4 5 2 7 4 4 2 2 2 3 4 4 4 3 2 3 3 3 3 5 4 5 5 3 2 1 0 1 2 2 3 8 4 3 4 4 5 5 5 6 6 6 5 5
6 7 4 7 6 8 8 6 4 3 3 3 2 3 3 2 1 1 2 3 4 2 4 4 5 5 3 2 3 4 4 6 6 3 3 2 2 1 6 5 5 5 4 4 7 6 7 6 6 6 7 5 4 3
6 6 4 7 8 8 5 4 2 2 2 2 1 3 2 1 1 1 2 3 4 4 3 3 3 4 4 4 4 4 2 4 5 4 3 2 4 7 7 7 6 6 5 5 6 5 7 3 2 0 2 2 2 4
6 5 4 6 5 2 3 3 1 1 2 3 3 3 3 1 1 1 2 2 2 3 3 4 3 3 3 4 4 4 3 1 6 6 4 5 6 7 6 6 6 5 5 5 5 4 3 1 1 1 2 3 4 3
6 7 4 4 2 3 4 4 2 3 4 3 4 3 2 2 2 2 2 2 1 2 3 3 3 3 3 3 3 3 5 5 6 6 8 6 7 7 6 5 5 5 6 6 4 3 2 2 1 2 3 4 4 4
3 3 3 3 4 5 4 3 4 3 3 2 1 1 1 2 1 1 1 1 2 2 4 5 5 4 5 5 4 5 6 6 8 11 11 12 11 9 5 5 5 5 5 4 3 2 2 1 2 2 2 3 4 6
Wind_Direction
206 197 193 188 183 179 178 179 180 180 183 180 180 183 178 175 167 128 144 142 121 124 278 300 36 138 106 132 140 238 31 331 28 69 108 230 134 258 310 264 280 340 64 6 25 57 345 3 354 75 204 273 346 19
207 198 191 186 182 179 176 178 177 178 180 178 179 182 175 173 166 130 126 111 107 82 175 32 55 46 31 93 132 129 174 205 177 94 109 110 19 23 175 300 320 317 183 210 170 212 346 335 87 338 324 58 360 359
199 193 186 185 180 178 175 176 175 177 177 175 177 180 172 169 166 133 135 143 76 98 31 55 192 341 29 21 279 118 295 230 131 160 161 189 147 123 148 249 286 253 170 237 39 298 235 335 15 55 63 90 335 340
207 194 188 182 179 176 174 175 173 174 174 173 175 175 169 163 155 128 141 158 94 107 120 260 336 22 322 338 181 137 191 79 80 43 83 127 140 183 204 233 228 211 59 202 270 287 3 219 145 360 339 15 29 4
203 191 186 181 176 174 172 173 170 172 170 170 173 170 163 154 137 96 92 187 148 129 161 203 359 352 316 314 77 83 101 102 88 48 62 229 187 173 313 288 249 189 194 162 226 210 159 214 128 341 350 7 22 8
190 189 181 183 180 173 171 170 168 168 165 166 167 163 156 144 131 97 37 262 179 124 103 102 234 349 14 48 73 64 39 42 90 129 223 266 261 140 130 239 254 208 198 185 216 195 207 287 306 323 330 337 339 327
198 190 187 183 178 172 169 165 163 161 159 160 161 157 147 149 100 125 187 209 148 104 93 101 125 329 324 80 25 94 76 46 94 116 203 261 270 235 187 227 260 236 221 206 168 122 331 281 201 311 283 304 314 279
190 186 179 177 174 169 165 160 157 153 154 154 151 143 141 124 97 44 41 114 89 92 75 120 126 171 180 50 52 6 77 35 1 173 246 216 340 236 253 238 261 54 74 339 250 219 254 314 339 333 326 355 360 325
203 184 181 177 172 165 160 156 149 148 148 145 138 123 110 65 105 173 118 86 55 115 142 113 145 190 152 119 134 17 86 45 257 232 238 201 247 228 228 222 228 216 191 187 158 51 340 282 290 294 340 344 326 297
233 183 181 175 171 164 158 152 147 144 141 130 124 113 165 204 135 135 18 40 3 343 42 113 75 133 135 127 69 100 351 198 176 239 320 225 253 268 240 211 186 192 195 140 48 325 0 339 340 315 283 284 276 289
229 181 178 170 166 160 155 145 144 138 134 123 128 112 133 145 84 48 102 119 252 286 169 172 154 135 232 124 155 177 176 227 152 256 213 260 270 244 247 235 214 163 181 198 146 132 177 175 213 252 293 269 270 276
217 171 169 166 157 154 149 144 143 136 141 120 106 94 96 92 70 138 188 169 188 206 163 136 168 139 151 118 103 150 141 97 234 237 165 255 250 242 230 204 188 172 170 160 198 214 216 231 233 225 253 263 257 255
207 175 165 162 157 150 151 148 143 130 114 123 104 116 131 167 173 190 189 199 179 162 170 163 124 125 117 72 92 107 98 209 55 154 231 232 258 265 218 211 216 149 138 109 112 322 306 280 260 211 267 248 274 272
194 175 167 160 157 153 151 146 141 130 127 117 136 146 190 179 220 190 151 139 170 137 139 131 109 123 135 94 126 108 235 104 111 226 233 234 220 214 176 178 134 198 188 170 209 225 256 260 301 95 2 292 290 289
176 162 159 155 154 155 150 148 150 144 102 125 140 184 196 152 45 128 134 106 167 145 139 115 83 97 117 114 93 114 118 231 208 226 228 215 206 175 177 183 190 168 173 185 170 184 233 289 335 37 334 323 310 302
167 157 164 154 156 154 148 148 128 68 78 134 151 120 144 102 102 108 160 122 143 149 101 70 119 113 178 135 142 207 155 217 231 208 218 146 172 190 176 175 172 166 164 155 165 193 192 76 59 149 357 1 6 16
160 108 159 156 156 148 146 126 99 102 149 138 157 97 146 98 145 151 150 142 156 151 144 135 132 165 100 90 236 198 207 215 207 218 191 189 170 174 163 154 161 161 158 167 183 179 139 103 108 88 83 322 17 33
159 150 154 153 142 140 57 51 107 126 137 108 124 157 156 104 127 126 124 152 146 153 145 165 126 155 172 177 232 223 226 263 232 184 177 160 154 149 154 161 161 162 161 177 190 158 137 122 120 187 172 207 126 102
151 150 151 145 142 120 115 105 82 98 100 104 90 77 87 103 52 111 140 143 62 102 114 110 119 176 205 205 233 252 211 196 175 172 162 24 144 151 150 129 138 149 159 172 188 196 162 154 156 163 190 174 191 167
149 149 145 147 134 89 95 94 116 99 134 143 85 80 85 94 115 126 131 91 108 113 88 147 185 175 75 357 324 288 311 309 137 92 100 218 185 150 163 160 172 152 135 127 307 308 138 123 157 174 180 176 177 204
128 133 131 108 65 62 75 67 78 100 121 101 134 75 81 95 113 127 129 338 64 74 125 20 61 9 314 266 7 340 325 338 68 12 126 138 160 121 129 131 128 128 150 170 191 213 180 185 170 172 173 153 120 146
102 86 73 49 73 68 69 15 93 128 84 131 93 92 101 110 119 137 124 75 50 57 36 356 3 319 343 25 1 1 302 339 336 29 29 63 120 129 164 170 147 184 192 202 200 195 205 203 181 175 144 145 112 98
60 48 55 21 75 49 23 332 71 20 106 129 98 90 77 94 68 71 77 50 77 25 355 339 293 274 304 338 18 26 20 17 41 19 28 31 30 59 83 131 149 152 200 252 212 188 195 175 158 139 129 120 128 118
38 49 34 46 26 55 345 33 21 49 59 48 67 87 52 65 17 51 85 55 23 358 21 2 352 357 119 25 31 19 14 356 3 24 17 13 11 8 18 31 204 206 184 172 152 165 141 164 153 137 148 136 151 158
66 8 17 16 17 25 42 34 19 46 72 33 83 76 28 330 78 60 73 36 0 9 9 4 18 29 38 6 14 14 32 27 14 350 18 9 314 308 342 8 23 270 83 70 360 230 201 156 171 175 181 183 183 185
68 13 36 2 12 29 7 60 34 34 42 68 48 337 298 71 67 67 39 359 360 13 1 359 356 353 38 33 354 355 344 353 326 309 25 3 356 8 340 22 17 8 21 113 146 228 227 220 194 197 212 211 205 183
49 355 4 51 350 308 66 55 43 52 57 35 358 353 1 73 76 60 31 33 345 341 317 310 309 314 317 329 329 322 314 300 265 279 295 295 295 252 308 5 334 287 295 276 225 216 228 221 225 215 220 217 221 204
52 38 20 336 32 8 62 48 37 37 21 348 284 31 51 26 79 353 359 354 331 316 306 308 324 326 308 322 325 338 332 322 293 241 222 215 212 70 1 308 279 308 302 244 241 237 226 223 222 222 213 213 215 201
33 339 314 22 50 52 42 36 54 39 347 315 24 73 88 71 27 342 320 324 317 337 11 4 359 346 358 15 27 15 3 360 10 38 42 27 358 358 347 326 318 317 310 306 295 273 231 227 222 206 208 202 213 175
10 346 20 36 45 41 23 6 28 347 9 31 52 115 97 80 81 341 348 358 13 11 351 343 341 7 12 9 350 351 33 41 39 35 8 340 309 306 309 310 314 313 311 305 296 292 298 263 242 70 190 148 159 176
323 326 63 50 76 33 330 315 309 2 20 44 15 59 78 70 118 44 16 353 348 354 17 11 349 2 1 4 360 346 335 338 355 331 305 286 282 296 308 311 302 293 287 288 294 286 277 251 169 207 238 238 222 209
6 29 14 65 41 355 15 33 6 31 352 26 20 13 30 48 51 323 348 349 10 25 0 335 319 294 324 302 285 248 262 288 301 306 300 299 295 294 296 300 296 293 291 286 278 273 250 235 234 242 241 234 196 179
12 18 49 50 12 8 9 15 33 9 55 57 50 348 353 347 66 318 339 286 297 289 308 313 291 273 278 283 286 299 320 310 309 322 323 316 315 307 316 312 311 306 307 303 317 312 273 202 165 172 200 134 111 98